User: anonymous   Login
Location: Ladrillo (historical)
(32.8195°N, 117.2231°W)
Time: 08:09:43
(UTC+00:00)
Language:

FALCON 9 R/B - Orbit

View from above orbital plane
View from above orbital plane
View from above satellite
View from above satellite

Ground track
Ground track

The orbit data is extracted from the following two-line orbital elements,

1 37253U 10066K   22222.77880251  .00004377  00000-0  46477-3 0  9993
2 37253  34.5135  28.7984 4197822  10.0703 356.2711  7.03162328291352
Epoch (UTC): 10 August 2022 18:41:28
Eccentricity: 0.4197822
inclination: 34.5135°
perigee height: 299 km
apogee height: 9962 km
right ascension of ascending node: 28.7984°
argument of perigee: 10.0703°
revolutions per day: 7.03162328
mean anomaly at epoch: 356.2711°
orbit number at epoch: 29135

The dashed part of the orbit path shows where the satellite is in the earth's shadow,  

DLR